Wind_Speed
26 27 27 28 28 29 28 28 28 28 28 27 27 27 28 28 28 28 29 29 29 29 30 30 30 30 30 29 29 28 27 27 26 26 26 26 26 26 26 26 26 26 26 26 26 25 25 25 25 24 24 23 23 22 22 21 21 21 20 19 17 16 14 14 14 14 14 12 9 9 12 13 13 13 13 13 14 15 15 15 16 16 17 18 20 21
27 27 28 28 29 29 29 29 29 29 28 28 28 28 29 29 29 29 29 30 30 30 30 30 30 29 29 29 28 28 27 26 26 26 26 26 26 25 25 25 25 25 25 25 25 25 25 24 24 23 23 22 22 21 21 21 21 21 20 19 18 16 14 14 14 15 14 11 9 12 16 16 15 15 14 15 16 17 17 18 18 18 19 20 21 21
28 28 28 29 29 29 30 30 29 29 29 29 29 29 30 30 30 30 30 30 31 30 30 30 30 29 29 28 28 27 27 26 26 26 26 25 25 25 24 24 24 25 25 25 25 24 24 24 23 22 22 21 20 20 20 20 20 20 20 19 18 16 15 15 15 16 16 13 11 14 18 19 19 18 17 18 19 20 20 20 20 21 22 22 22 22
28 29 29 29 30 30 30 30 30 30 30 30 30 30 31 31 31 31 31 31 31 31 31 30 30 29 28 28 28 27 27 26 26 26 26 25 24 24 23 23 23 24 24 24 24 24 23 23 22 22 21 20 20 19 19 19 19 20 20 19 18 17 16 16 16 17 17 16 13 14 18 20 20 20 20 20 21 21 22 22 22 23 24 24 23 22
29 29 29 30 30 30 31 31 31 31 31 31 31 31 31 31 31 31 31 31 31 31 31 30 30 29 28 28 28 27 27 27 26 26 25 25 24 23 22 22 23 23 24 24 24 23 23 22 21 21 20 20 19 18 18 18 18 18 18 18 18 17 17 17 17 18 17 16 14 13 15 17 18 19 20 20 21 22 22 22 23 24 24 24 24 23
30 30 30 30 30 31 31 31 31 31 32 32 32 32 32 32 32 32 32 31 31 31 31 30 30 29 28 28 27 27 27 27 26 26 25 25 24 23 22 22 22 22 23 23 23 23 22 22 21 20 20 19 19 18 18 17 17 17 17 17 17 17 17 17 18 17 17 16 14 12 12 13 15 17 18 18 19 20 20 21 22 23 24 24 23 22
30 30 31 31 31 31 31 31 32 32 32 32 33 33 33 33 33 32 32 32 31 31 31 30 29 29 28 28 27 27 27 27 26 26 25 25 24 23 22 22 22 22 22 23 23 22 22 21 21 20 20 19 18 18 17 17 17 17 17 17 17 17 17 17 17 16 15 14 12 10 10 12 14 15 16 17 18 18 19 20 21 22 22 22 22 21
31 31 31 31 31 31 31 31 32 32 32 33 33 33 33 33 33 33 32 32 32 31 30 30 29 29 28 28 28 27 27 26 26 26 25 25 24 23 22 22 22 22 22 22 22 22 21 21 20 20 20 19 18 18 17 17 17 17 17 16 16 16 16 16 16 15 14 12 10 10 10 12 14 15 16 17 18 18 19 20 21 21 21 21 21 21
31 31 31 31 31 31 31 32 32 32 33 33 33 33 33 33 33 33 32 32 32 31 30 29 29 28 28 28 28 27 27 27 26 26 25 25 24 23 23 22 22 22 22 22 22 21 21 21 20 20 20 19 18 18 17 17 16 16 16 16 16 16 15 15 14 13 12 10 9 10 11 13 15 16 17 18 18 19 20 21 21 21 21 20 20 20
32 32 31 31 31 31 31 32 32 33 33 33 33 33 33 33 32 32 32 31 31 31 30 30 29 28 28 28 27 27 27 27 26 26 25 25 24 23 23 22 22 22 22 22 21 21 21 20 20 20 19 19 18 18 17 16 16 15 15 15 15 14 14 14 13 12 11 10 10 11 13 14 16 17 18 18 19 19 20 21 21 21 20 20 20 20
33 32 32 31 32 32 32 33 33 33 33 33 34 33 33 33 32 31 30 30 30 31 30 30 29 28 28 28 27 27 27 27 26 26 25 24 24 23 23 22 22 22 22 22 21 21 21 21 20 20 20 19 19 18 17 16 16 15 14 14 14 13 13 13 12 11 10 10 11 13 14 16 17 17 18 18 19 20 21 22 21 21 20 20 19 19
34 33 32 32 32 33 33 33 33 34 34 34 34 33 33 32 31 30 29 28 29 29 30 29 28 28 27 27 27 27 26 26 26 26 25 24 24 23 23 23 22 22 22 22 22 21 21 21 21 20 20 19 19 18 17 16 16 15 14 13 13 13 13 13 12 11 11 12 13 14 16 17 17 18 18 19 19 21 22 22 22 21 20 19 19 19
34 34 33 33 33 33 33 33 34 34 34 34 33 33 32 31 30 29 28 27 27 28 28 28 28 27 27 27 26 26 26 26 26 25 25 24 24 23 23 23 22 22 22 22 22 21 21 21 21 21 20 20 20 19 18 17 16 15 14 14 13 13 13 13 12 12 13 14 15 16 17 18 18 18 18 19 20 21 22 22 21 20 19 19 19 19
34 34 34 33 33 33 34 34 34 34 34 34 33 32 32 30 29 28 27 27 26 26 27 27 27 27 27 26 26 26 26 25 25 25 24 24 24 23 23 22 22 21 22 22 22 22 22 21 21 21 21 21 20 20 19 18 17 16 16 15 15 15 14 14 14 14 14 15 16 17 18 18 18 18 19 19 20 21 22 22 20 19 19 19 19 19
34 34 34 34 34 34 34 34 34 33 33 33 33 32 31 30 28 27 26 26 26 26 25 26 26 26 26 26 26 25 25 25 24 24 23 23 23 23 22 22 22 22 21 22 22 22 22 22 21 21 21 21 21 20 20 19 19 18 17 17 16 16 16 15 15 15 15 16 17 17 18 18 19 19 19 20 21 22 22 21 20 19 19 19 19 19
35 35 34 34 34 34 34 34 34 33 33 32 32 31 29 29 28 27 26 26 26 25 25 25 26 26 26 26 25 25 25 25 24 23 23 23 23 23 22 22 22 21 21 22 22 22 22 22 22 21 21 21 21 21 20 20 19 19 18 18 18 17 17 16 16 16 16 17 17 18 19 19 20 20 20 21 22 22 22 20 19 18 18 19 19 19
35 35 35 34 34 34 34 34 33 33 32 31 30 29 28 28 27 26 26 26 26 25 25 25 25 26 26 26 25 25 24 24 24 23 22 22 22 23 22 22 21 21 21 22 22 22 22 22 22 21 21 21 21 20 20 20 19 19 18 18 18 17 17 16 17 17 17 18 18 19 20 21 21 21 22 22 23 23 22 20 19 18 18 19 19 20
36 36 35 35 34 34 34 33 32 32 31 30 29 28 28 27 27 26 26 26 26 26 25 25 25 25 26 26 26 25 24 24 23 23 22 22 22 22 22 22 21 21 21 22 22 22 22 22 21 21 21 21 21 20 20 19 19 19 18 18 17 16 16 17 17 18 18 19 20 21 22 22 23 23 23 23 24 23 22 20 19 18 19 19 19 20
36 36 35 35 34 34 33 32 31 30 30 29 28 28 27 27 27 26 26 26 26 26 25 25 25 25 25 26 26 25 24 24 23 23 22 22 22 22 22 21 21 21 21 21 22 22 22 22 21 21 21 21 20 20 20 20 19 19 18 18 17 17 17 18 18 19 20 21 22 23 23 24 24 24 24 24 24 24 22 20 19 19 19 19 19 20
36 36 35 34 33 32 31 30 30 29 29 28 28 27 27 27 27 26 26 26 26 26 25 25 25 25 25 25 25 25 24 24 23 23 23 22 22 22 22 21 21 20 20 20 21 22 22 22 22 21 21 21 21 21 21 21 20 20 20 19 19 19 19 19 20 21 22 23 24 24 25 25 25 25 25 24 24 24 22 20 19 19 19 19 20 20
35 34 34 33 32 31 30 29 29 29 28 27 27 27 26 26 26 26 26 26 26 26 25 25 25 25 25 25 24 24 24 24 24 24 24 23 23 23 22 22 21 20 19 20 21 21 21 21 22 22 22 22 22 22 21 21 21 21 21 21 21 21 21 22 23 24 24 25 25 26 26 25 25 25 25 25 24 23 22 20 20 19 20 20 20 20
32 31 31 31 30 29 29 28 28 27 27 26 26 26 26 26 26 26 26 26 25 25 25 25 25 25 24 24 24 24 25 24 24 24 24 23 23 23 23 22 21 20 19 20 21 21 21 21 22 22 22 22 22 22 22 22 22 22 22 22 22 23 23 24 25 25 26 26 26 26 26 26 25 25 25 24 24 23 21 20 20 20 20 20 20 20
29 29 29 28 28 27 27 27 27 26 26 26 26 25 25 25 25 25 25 25 25 25 25 24 24 24 24 24 24 24 25 24 24 24 24 23 23 23 22 22 21 20 19 20 20 21 21 21 22 22 22 22 22 22 22 22 22 22 22 22 23 23 24 24 25 26 26 26 26 26 26 25 25 24 24 24 23 22 21 20 20 20 20 20 20 20
27 27 26 26 26 26 26 26 25 25 25 25 25 25 24 24 24 24 24 24 24 24 24 24 24 24 24 24 24 24 24 24 24 24 24 23 22 22 22 22 21 20 20 20 20 21 21 21 22 22 22 22 22 21 21 21 21 22 22 22 22 23 23 24 24 25 25 26 26 25 25 25 24 24 24 23 22 21 20 20 20 20 20 20 20 20
25 25 24 24 24 24 24 24 24 24 24 23 23 23 23 23 23 23 23 23 23 24 24 24 23 23 23 23 24 24 24 24 24 24 23 23 22 21 21 22 22 21 21 21 21 21 21 21 21 21 22 21 21 21 21 21 21 21 22 22 22 23 23 23 24 24 24 24 24 24 24 24 23 23 23 22 21 20 20 19 19 20 20 20 20 20
23 23 23 23 23 23 23 23 23 23 22 22 22 22 22 22 23 23 23 23 23 24 24 23 22 22 23 23 24 24 24 25 24 24 23 22 21 21 21 22 22 22 21 21 21 21 20 20 20 21 21 21 21 21 21 21 21 21 22 22 22 22 22 23 23 23 23 23 23 23 23 23 23 23 22 22 20 20 19 19 19 19 20 20 20 19
22 22 22 22 22 22 22 21 21 21 21 21 21 22 22 22 22 23 23 23 23 24 24 23 23 23 23 23 24 24 24 24 24 24 24 22 21 20 21 22 22 22 22 21 21 20 20 20 20 20 20 20 21 21 21 21 21 21 21 22 22 22 22 22 22 22 22 21 21 21 22 22 22 22 21 20 19 19 19 19 19 19 19 19 19 19
21 21 21 21 21 21 20 20 20 20 21 21 21 22 22 22 22 23 23 23 23 24 23 23 23 23 23 23 24 24 24 24 24 24 24 22 21 20 21 22 22 22 22 21 21 20 20 19 20 20 20 20 21 21 21 21 21 21 21 21 21 21 21 21 21 21 20 20 20 20 21 21 21 21 20 19 18 18 18 18 18 19 19 19 19 19
20 20 20 20 20 20 20 20 20 20 21 21 22 22 22 23 23 23 23 23 23 23 23 23 23 23 23 23 23 24 24 24 24 24 24 22 21 20 21 22 22 22 22 21 21 20 19 19 20 20 20 21 21 21 22 22 21 21 21 21 21 21 21 20 20 20 19 19 19 19 19 19 19 19 18 18 17 17 18 18 18 18 18 18 18 18
20 20 20 20 20 21 21 21 21 21 21 22 22 23 23 23 23 23 23 23 23 22 22 22 22 22 22 22 23 23 23 23 23 24 24 22 21 21 21 21 22 22 22 21 21 20 19 20 20 20 21 21 22 22 22 22 22 22 21 21 21 21 20 20 20 19 19 19 18 18 18 18 18 17 17 17 17 17 17 17 17 17 17 18 18 18
20 20 20 21 21 21 21 21 21 22 22 22 22 23 23 23 23 23 23 23 23 22 22 22 22 22 22 22 22 22 22 22 23 23 23 23 22 22 21 21 22 22 22 22 21 20 20 19 20 21 22 22 22 23 23 22 22 22 22 21 21 21 20 20 19 19 18 18 18 18 17 17 17 16 16 16 17 17 17 17 17 17 17 17 17 17
20 20 20 21 21 21 21 21 22 22 22 22 23 23 23 24 24 24 24 23 23 23 22 22 22 22 22 22 21 21 21 22 22 22 23 22 22 22 22 22 22 22 22 22 22 21 20 19 20 20 22 22 23 23 23 23 23 23 22 22 22 21 21 20 19 18 18 18 17 17 17 17 16 16 16 16 16 16 16 16 16 16 16 17 17 17
20 20 20 20 21 21 21 21 22 22 22 22 23 23 23 24 24 24 24 24 24 23 23 23 23 22 22 22 22 22 22 22 22 22 22 22 22 23 23 23 23 23 23 23 23 22 21 21 20 21 21 22 23 23 24 24 24 23 23 22 22 21 21 20 19 18 18 18 17 17 17 17 16 16 16 16 16 16 16 16 16 16 16 16 16 17
21 21 21 20 21 21 21 21 21 22 22 22 23 23 23 24 24 24 24 24 24 24 24 23 23 23 23 22 22 22 22 22 22 22 23 23 23 23 23 24 24 24 24 24 24 23 23 22 22 21 22 22 23 23 24 24 24 24 23 23 22 22 21 20 19 18 18 18 18 18 17 17 16 16 16 16 16 16 16 16 15 15 16 16 16 17
21 21 21 21 21 21 21 21 21 22 22 22 23 23 23 24 24 24 24 24 24 24 24 24 24 23 23 23 22 22 22 22 23 23 23 24 24 24 24 24 25 25 25 25 25 25 24 23 23 23 23 23 23 23 24 24 24 24 23 23 23 22 21 20 19 18 18 18 18 18 17 17 16 16 16 16 16 16 16 15 15 15 16 16 16 17
21 21 21 21 21 21 21 21 21 22 22 22 23 23 23 24 24 24 24 24 24 24 24 24 24 24 24 23 23 23 23 23 23 23 23 23 24 24 25 25 25 25 26 26 26 25 25 24 24 24 23 23 23 23 24 24 24 24 23 23 23 22 21 20 19 18 18 18 18 18 18 17 16 16 16 16 16 16 16 16 16 16 16 16 17 17
21 21 21 21 21 21 22 22 22 22 22 22 23 23 23 24 24 24 24 24 24 24 24 24 24 24 24 24 24 23 23 23 23 22 23 23 23 24 24 25 25 25 26 26 26 25 25 25 24 24 24 24 23 23 23 23 23 23 23 23 23 22 21 20 19 19 18 18 18 18 18 17 17 16 16 16 16 16 16 16 16 16 16 17 17 17
22 21 21 21 21 21 22 22 22 22 23 23 23 24 24 24 24 24 24 24 24 24 24 24 24 24 23 24 24 24 23 23 23 23 23 23 23 23 24 24 24 24 25 25 25 25 25 24 24 24 24 24 23 23 23 23 23 23 23 23 23 22 22 21 20 19 19 19 19 19 18 18 17 17 17 17 17 17 17 17 17 17 17 17 17 18
22 22 21 21 21 21 22 22 23 23 23 24 24 24 25 25 25 25 25 25 25 25 24 24 24 23 23 23 23 23 23 23 23 23 23 23 23 23 23 23 24 24 24 24 24 24 24 24 23 23 23 23 23 23 23 22 22 22 22 22 23 22 22 21 20 19 19 19 19 19 19 18 18 17 17 17 17 17 17 17 17 17 17 18 18 18
23 22 22 21 21 21 22 22 23 23 24 24 25 25 25 25 26 26 26 26 25 25 25 24 24 24 23 23 23 23 23 23 23 23 22 22 22 22 23 23 23 23 23 23 23 23 23 23 23 23 23 22 22 22 22 22 22 22 22 22 22 22 22 21 20 20 20 20 20 19 19 19 18 18 18 18 18 18 18 18 18 18 18 18 18 19
24 23 22 22 22 22 22 22 23 23 24 24 25 25 26 26 26 26 26 26 26 25 25 25 25 24 24 24 23 23 23 23 22 22 22 22 22 22 22 22 22 22 22 22 22 22 22 22 22 22 22 22 22 21 21 21 21 21 21 22 22 22 22 21 21 20 20 20 20 20 20 19 19 19 19 19 19 19 19 19 19 18 18 19 19 19
24 24 23 23 22 22 22 22 23 23 24 25 25 26 26 26 26 26 26 26 26 26 26 25 25 25 24 24 24 23 23 23 22 22 22 22 22 22 21 21 21 22 22 21 21 22 22 21 21 21 21 21 20 20 21 21 21 22 21 21 22 22 22 22 21 20 20 20 20 20 20 20 20 20 19 19 19 19 19 19 19 19 19 19 19 20
25 25 24 24 23 23 23 23 23 24 24 25 25 26 26 26 27 27 27 27 27 26 26 26 25 25 25 25 24 24 23 23 23 22 22 21 21 21 21 21 21 21 21 21 21 21 21 21 21 20 20 20 20 20 20 21 21 21 21 21 21 22 22 22 22 21 20 20 20 20 21 20 20 20 20 20 20 20 20 20 20 20 20 20 20 20
26 26 25 25 24 24 24 24 24 24 25 25 26 26 26 26 27 27 27 27 27 27 27 26 26 26 26 25 25 24 24 23 23 22 22 21 21 21 20 20 20 20 20 20 20 20 20 20 20 20 20 20 19 20 20 21 21 21 21 21 21 21 22 22 22 21 21 21 21 21 21 21 21 21 20 20 20 20 20 20 20 20 20 21 21 21
27 27 26 25 25 25 25 25 25 25 25 26 26 26 26 26 27 27 27 27 27 27 27 27 26 26 26 26 26 25 25 24 23 23 22 22 21 20 20 20 19 19 20 20 20 20 20 20 20 20 20 19 19 20 20 21 21 21 21 21 21 21 22 22 22 22 22 22 21 21 21 21 21 21 21 21 21 21 21 21 21 21 21 21 21 21
27 27 26 26 26 25 25 25 25 26 26 26 26 27 27 27 27 27 27 27 27 27 27 27 26 26 26 26 26 26 25 25 24 24 23 22 22 21 20 20 19 19 19 19 19 19 19 19 19 20 20 19 19 20 20 21 21 21 21 21 21 21 21 22 23 23 23 22 22 22 22 22 21 21 21 21 21 21 21 21 21 21 21 21 21 21
28 27 27 27 26 26 26 26 26 26 26 27 27 27 27 27 27 27 27 27 27 27 27 27 26 26 26 26 26 26 25 25 25 24 24 23 23 22 21 20 20 20 19 19 19 19 19 19 19 19 19 19 20 20 20 20 20 20 20 20 21 21 21 22 23 23 23 23 23 23 22 22 22 22 22 22 22 22 22 22 22 22 22 21 21 21
28 28 28 28 27 27 27 27 27 27 27 27 27 28 28 28 28 28 28 27 27 27 27 26 26 26 26 26 26 26 26 25 25 25 25 24 24 23 22 22 21 20 20 20 19 19 19 19 19 19 19 19 20 20 20 20 20 20 20 20 21 21 21 22 23 23 23 23 23 23 23 22 22 22 22 22 22 22 22 22 22 22 22 22 22 21
28 29 28 28 28 28 28 27 27 27 27 27 28 28 29 29 29 28 28 28 28 27 27 27 26 26 26 26 26 26 26 26 26 26 25 25 25 24 24 23 22 22 21 20 20 20 20 20 20 20 20 20 20 20 20 20 20 20 20 20 20 21 21 22 23 23 23 23 23 23 23 23 23 23 23 22 22 22 22 22 22 22 22 22 22 22
29 30 30 29 29 29 28 28 28 28 28 28 28 29 29 29 30 30 29 29 28 28 28 27 27 27 27 27 27 27 27 27 27 26 26 26 26 26 25 25 24 23 22 21 21 20 20 20 21 21 21 20 19 19 20 20 21 21 20 20 21 21 21 22 22 23 23 23 23 23 23 24 24 24 23 23 23 23 23 23 23 23 23 23 23 23
30 31 31 30 30 30 29 29 29 29 29 29 29 30 30 30 30 30 30 30 29 29 29 29 28 28 27 27 27 27 27 28 28 28 27 27 27 27 27 26 26 25 24 23 22 21 21 20 21 22 22 21 20 19 19 20 20 21 21 21 21 21 21 22 22 22 23 23 23 24 24 24 24 24 24 23 23 23 23 24 24 24 25 24 24 24
Wind_Direction
295 297 299 301 301 301 300 299 297 296 295 294 294 294 294 294 294 294 294 295 295 294 294 294 295 295 295 295 296 296 297 298 298 299 299 300 300 300 300 299 299 298 297 297 297 297 298 298 298 297 297 297 296 295 294 293 291 290 289 285 280 275 274 278 284 290 293 296 287 271 267 276 286 292 292 291 291 289 285 278 275 277 282 286 285 281
294 296 299 300 301 300 300 298 297 296 295 295 295 295 295 295 295 295 295 295 295 295 294 294 294 294 294 295 295 296 296 297 298 298 298 299 298 298 298 297 296 296 296 296 296 297 297 297 298 298 297 297 296 294 293 292 291 290 288 284 279 273 271 274 279 284 286 283 253 230 234 247 262 271 267 267 271 273 272 268 268 273 280 287 288 285
294 296 298 300 300 300 299 298 297 296 295 295 295 295 295 295 295 296 296 296 295 295 294 294 294 294 294 294 295 295 296 296 297 297 297 297 297 297 296 296 295 295 294 295 295 296 297 298 298 298 298 297 296 295 294 293 291 290 289 285 279 273 269 270 275 280 281 276 249 226 228 241 257 268 268 269 271 272 272 272 274 279 285 290 291 289
294 296 298 299 300 299 298 297 297 296 296 295 295 295 295 295 295 295 296 295 295 295 294 293 293 293 293 293 294 294 295 295 296 296 296 296 296 296 295 294 293 293 293 293 294 296 297 298 299 299 299 298 297 296 294 292 291 290 288 286 281 275 270 269 273 277 277 272 254 231 225 237 252 264 271 272 272 271 271 273 277 282 287 290 290 288
294 296 298 299 299 298 298 297 296 296 296 295 295 295 295 295 295 295 295 295 294 293 293 292 292 292 292 292 293 293 294 294 295 295 295 295 295 294 293 292 291 291 291 292 294 295 296 298 299 299 300 299 298 296 294 291 290 288 287 285 282 277 274 273 274 275 274 269 257 239 228 235 246 256 262 265 265 265 266 270 275 280 284 285 285 283
293 296 297 298 297 297 297 296 296 295 295 294 294 294 295 295 295 295 294 294 293 292 291 291 291 291 291 291 291 292 292 293 294 294 294 294 294 294 293 291 290 289 290 291 293 295 296 297 298 299 300 299 298 296 293 290 288 286 285 283 281 279 277 276 276 274 270 264 255 245 238 240 247 253 257 260 262 263 265 269 274 278 281 281 280 278
293 295 296 296 297 296 296 295 295 294 294 293 294 294 294 294 294 294 293 292 291 290 289 289 290 290 290 290 290 290 291 292 293 293 294 294 294 293 292 291 290 289 289 291 292 294 296 297 298 299 299 299 297 295 292 289 287 285 284 282 281 279 278 277 275 271 265 258 252 247 247 250 254 257 260 262 264 266 269 273 277 280 280 279 276 274
294 295 295 296 296 295 294 294 293 292 292 292 293 293 293 293 293 292 291 290 289 288 288 288 289 289 289 289 289 289 290 291 292 292 293 293 293 293 292 290 289 288 289 290 291 293 295 296 297 297 297 297 296 294 292 289 287 285 284 283 281 280 278 276 272 265 258 252 249 250 255 258 261 263 265 267 269 271 274 278 281 281 280 276 272 269
293 294 294 294 294 293 292 291 291 291 291 291 292 292 292 292 292 292 291 290 289 288 288 288 288 288 288 288 288 289 289 290 290 291 292 292 292 292 291 290 289 288 288 289 290 292 293 294 294 295 295 295 294 293 291 289 287 286 284 283 281 280 277 272 266 259 253 251 253 258 262 264 266 269 271 272 274 276 279 282 283 282 278 273 269 266
293 293 292 292 292 291 290 290 290 291 291 292 292 292 292 292 291 291 290 290 289 288 288 287 287 287 288 287 288 288 289 289 289 290 290 291 291 291 290 289 288 288 287 288 289 290 291 291 292 292 292 293 292 291 290 289 287 285 283 282 280 277 273 268 262 257 255 258 263 266 267 269 271 273 275 277 279 281 284 285 285 282 277 271 266 263
292 291 291 291 291 291 291 291 291 292 292 292 292 292 292 291 290 290 289 289 288 288 287 287 287 287 288 288 288 288 288 288 289 289 289 290 290 290 290 289 288 288 287 287 288 288 289 289 289 290 290 290 290 289 288 287 285 283 282 279 276 273 269 264 261 260 263 267 270 270 270 271 273 276 278 281 283 286 288 288 286 282 275 268 264 262
290 290 291 291 291 291 292 292 292 293 293 293 293 292 291 290 290 289 288 287 287 286 287 287 288 288 288 288 288 288 288 288 288 289 289 289 289 289 289 288 288 288 288 288 288 288 288 288 288 288 288 288 288 287 286 285 283 281 279 276 273 269 265 263 263 265 269 271 272 271 271 273 275 277 280 283 286 289 290 289 286 281 273 266 262 261
289 290 290 291 291 292 292 292 293 293 293 292 292 291 291 290 289 288 287 286 286 286 287 288 289 289 289 288 288 288 288 288 288 288 289 289 289 288 288 287 287 287 287 287 287 287 288 288 288 287 287 287 286 285 284 282 280 278 276 274 271 268 265 264 265 267 270 271 272 272 273 274 276 277 280 283 287 289 290 289 285 278 270 264 261 260
288 289 290 290 291 292 292 292 292 292 292 292 291 291 290 290 289 289 288 287 287 287 288 288 289 289 289 289 288 288 288 287 287 288 288 288 288 288 288 287 286 286 287 287 287 287 287 287 287 286 286 286 285 284 283 281 279 277 274 272 270 268 267 266 267 268 270 271 272 274 276 276 277 279 281 284 287 289 289 286 281 274 266 262 260 260
287 288 289 290 291 291 291 292 292 291 291 291 290 290 290 289 289 289 289 289 288 288 288 288 288 289 288 288 288 288 288 287 287 288 288 288 287 287 287 286 286 286 286 287 287 287 287 286 286 286 286 285 285 284 283 281 279 277 274 272 270 268 267 267 267 268 269 271 273 276 278 279 279 280 282 285 287 289 288 284 277 269 263 259 259 259
288 289 289 290 290 291 291 291 291 290 290 290 289 289 289 289 290 290 290 289 289 289 288 288 288 288 288 288 288 288 289 288 288 288 288 287 287 287 287 286 285 285 286 286 286 286 287 286 286 286 286 286 285 285 283 282 280 277 275 272 270 268 267 266 266 266 268 270 274 276 279 280 281 282 283 285 287 289 287 282 273 265 259 257 258 258
289 289 290 290 290 290 290 290 289 289 289 288 288 288 289 289 290 290 290 289 289 289 288 287 287 287 287 287 288 288 289 288 288 288 287 286 286 286 286 285 285 285 286 286 286 286 286 286 286 286 286 286 286 285 284 282 281 279 276 274 271 269 267 265 264 264 266 270 274 277 279 281 281 282 283 285 287 287 285 279 270 262 257 256 257 257
289 289 290 289 289 289 289 288 288 288 287 287 287 288 288 289 289 289 289 289 288 288 287 287 286 286 286 287 287 288 288 288 287 286 286 284 284 284 285 284 283 284 284 285 285 285 285 285 286 286 286 287 286 286 285 283 281 280 278 276 273 270 266 264 263 264 267 270 274 277 279 280 281 281 282 283 285 285 283 276 267 259 256 255 256 256
289 289 289 288 288 288 287 287 286 286 286 286 287 288 288 288 288 288 288 288 288 287 287 287 286 286 286 286 287 288 288 287 286 285 284 283 282 282 283 282 282 282 282 283 284 284 284 285 285 285 285 286 285 285 283 282 280 279 277 275 273 269 266 265 264 265 267 270 273 275 277 278 279 279 280 281 282 282 279 272 264 258 255 255 256 256
288 288 288 288 287 287 286 286 285 285 285 286 287 287 287 288 288 288 287 287 287 287 287 287 286 286 287 287 287 287 287 287 286 285 284 283 283 282 283 282 281 280 280 281 281 282 283 283 284 284 285 284 284 283 282 281 279 277 276 274 272 269 266 265 265 266 267 269 272 274 275 276 276 276 277 278 279 278 275 268 261 256 255 255 256 256
287 287 287 286 286 285 285 285 284 285 285 286 286 286 287 287 287 287 287 287 287 287 287 287 287 287 287 287 287 287 286 286 285 284 284 284 283 283 282 281 280 279 278 279 279 280 281 282 283 284 284 284 284 283 283 281 279 278 276 274 272 270 268 267 267 267 268 270 271 272 273 273 273 273 274 275 276 274 270 264 258 255 254 255 256 256
286 286 285 285 284 284 284 284 284 284 285 286 286 286 286 286 286 286 286 287 287 287 287 287 287 287 287 287 286 285 285 285 284 283 283 283 282 282 281 280 279 277 277 277 278 279 280 281 282 283 284 284 284 284 284 283 281 280 278 276 274 273 272 271 270 270 270 271 271 272 272 272 271 271 272 273 272 270 265 259 255 253 254 255 256 256
285 284 283 283 283 282 282 283 283 284 285 285 285 285 286 286 286 286 286 287 287 287 287 287 286 286 286 286 285 284 284 283 283 282 282 281 280 280 280 279 277 275 274 275 276 278 279 280 281 282 283 284 284 284 284 284 283 281 280 279 277 276 275 274 274 273 272 272 272 272 271 271 270 270 270 271 269 266 260 255 252 252 253 254 255 255
284 283 282 282 282 282 282 282 283 283 284 284 284 285 285 285 285 286 286 287 287 287 287 286 286 286 286 285 284 283 282 283 282 282 281 279 278 278 278 278 276 274 273 274 275 276 278 279 280 281 283 283 283 283 284 283 283 283 282 281 280 279 278 277 276 275 274 273 273 272 271 271 270 270 269 269 267 262 256 252 250 250 252 253 254 253
283 282 282 281 281 281 281 282 282 283 283 283 284 284 284 285 285 286 287 287 288 288 287 287 286 285 285 284 283 282 281 282 281 281 280 279 277 276 277 277 275 274 273 274 275 276 277 278 279 281 281 282 283 283 283 283 283 283 282 282 282 281 281 280 279 278 276 275 274 273 272 271 270 270 269 267 264 258 253 249 248 249 251 252 253 252
284 283 282 282 281 281 281 281 282 282 282 283 283 284 284 285 286 287 288 288 288 288 288 287 286 285 285 284 283 282 282 282 281 281 280 278 276 275 275 276 275 274 274 275 276 276 277 278 279 280 281 281 282 283 283 283 283 283 283 283 283 282 282 282 281 280 278 277 275 274 273 272 271 269 268 265 260 254 250 248 248 249 250 251 251 250
284 283 283 282 281 281 281 281 281 282 282 282 283 284 285 287 288 289 289 289 289 289 288 288 288 287 286 285 283 283 283 282 282 282 280 279 277 275 275 275 274 274 274 275 276 277 278 279 279 280 280 281 282 282 282 282 283 283 283 283 283 283 283 283 282 281 280 279 277 275 274 272 270 268 266 262 256 251 248 247 248 249 249 250 249 248
283 282 281 281 280 280 280 280 281 281 282 283 284 285 286 288 289 290 290 290 290 290 289 289 289 288 286 285 284 284 283 283 282 282 281 279 277 275 274 275 275 274 274 275 276 277 278 279 279 280 280 281 281 282 282 282 283 283 283 283 283 283 283 283 283 282 281 280 278 276 274 272 269 267 263 258 253 249 247 247 247 248 248 248 247 245
281 280 280 280 280 280 280 281 281 282 283 284 285 286 288 289 290 291 291 291 291 291 289 289 288 287 286 285 285 285 284 284 284 283 282 280 278 276 275 275 274 274 274 274 275 276 277 278 279 280 280 280 280 281 282 282 283 283 283 283 283 283 283 283 282 282 281 280 278 276 274 271 268 264 260 255 251 248 247 247 247 247 247 246 245 243
280 279 279 280 281 281 282 282 283 284 285 286 287 288 289 289 290 291 291 292 292 292 290 289 288 287 286 286 285 285 284 285 285 284 283 282 279 278 276 275 274 274 274 275 275 275 276 277 279 280 280 280 280 281 282 282 283 283 283 283 282 282 282 282 281 281 280 279 277 275 273 270 267 262 258 253 250 248 248 247 247 246 245 245 243 241
280 281 282 282 283 284 284 285 285 286 287 287 288 288 289 289 290 290 290 291 292 292 291 290 289 288 287 287 286 284 284 284 285 285 284 283 281 280 279 277 276 275 275 275 275 275 275 276 277 279 279 280 281 281 282 282 283 283 282 282 282 281 281 280 280 280 279 277 276 274 271 268 265 261 257 253 251 249 248 246 245 244 243 242 241 239
281 282 283 284 285 286 286 287 287 288 288 288 289 289 290 290 290 290 291 292 292 293 293 292 291 291 290 289 288 287 286 285 285 285 284 284 283 282 281 279 278 277 277 276 276 276 275 275 275 276 277 279 280 281 282 282 282 282 281 281 280 280 279 279 279 278 277 276 274 272 270 266 263 260 256 253 251 249 247 245 244 242 241 241 239 238
280 282 283 284 285 286 287 288 288 289 289 290 290 290 290 291 291 292 292 292 293 293 294 294 293 292 292 291 290 290 289 288 287 287 286 285 284 283 283 281 280 279 278 278 277 277 277 276 275 275 276 277 279 280 280 281 281 281 280 280 279 278 278 278 277 276 275 274 272 270 268 265 262 259 256 253 250 248 245 243 242 240 239 239 238 236
280 281 283 284 285 286 287 287 288 289 289 290 290 291 291 291 292 292 293 293 293 293 293 294 294 293 292 292 291 291 290 289 289 288 287 286 285 284 283 282 281 280 280 279 278 278 277 277 276 276 276 277 278 278 279 279 279 279 279 278 278 277 277 276 275 274 273 271 270 268 266 264 261 258 255 252 249 246 244 242 240 239 238 237 236 236
280 281 283 284 285 286 286 287 287 288 289 289 290 290 291 291 291 292 292 293 293 293 293 293 293 293 292 291 290 290 289 289 288 288 287 286 286 285 284 283 283 282 281 280 280 279 278 277 277 277 277 277 278 278 278 278 278 278 277 277 276 276 275 274 273 272 270 269 268 266 265 262 260 256 253 250 247 245 243 240 239 237 237 236 236 235
280 281 282 283 284 285 286 286 287 287 288 289 289 289 290 290 291 291 292 292 292 293 293 293 293 293 293 292 291 290 289 289 288 288 287 286 286 285 285 284 284 283 283 282 281 280 279 278 277 277 277 277 277 277 277 277 277 276 276 275 275 274 273 272 271 270 269 267 266 264 263 260 258 254 251 248 246 243 241 239 238 237 236 236 235 235
279 280 282 283 284 285 285 286 286 287 287 288 288 288 289 289 290 290 291 291 292 292 292 292 293 293 293 293 292 291 291 291 290 289 288 287 287 286 285 285 285 284 283 283 282 281 279 278 277 277 276 277 277 276 276 276 275 275 274 274 273 272 271 270 270 269 267 266 264 262 261 258 255 252 250 247 245 243 241 239 238 236 236 236 235 235
279 280 282 283 284 285 286 286 287 287 288 288 288 288 289 289 290 290 291 291 291 292 292 292 292 292 292 292 292 292 292 292 292 291 289 289 288 286 286 285 285 284 284 283 282 281 280 279 278 277 276 276 276 276 275 274 274 273 273 272 271 270 269 269 268 267 266 264 262 261 259 256 253 250 248 246 244 242 241 239 238 237 237 236 236 236
279 281 282 284 285 285 286 287 288 288 288 288 288 289 289 290 291 291 291 292 292 292 292 292 292 292 292 291 292 292 292 292 292 292 291 290 289 288 287 286 285 285 284 283 282 281 280 279 278 277 276 276 276 276 275 274 273 271 271 270 270 269 268 267 266 265 263 262 261 259 257 254 252 249 247 245 244 242 241 240 239 238 238 238 238 238
280 281 282 283 284 285 286 287 288 288 288 289 289 290 290 291 291 292 292 292 292 292 292 292 292 292 292 292 292 292 292 292 292 292 292 291 291 289 288 287 286 285 284 284 283 282 281 279 278 277 276 276 275 275 275 273 272 270 268 268 268 268 267 266 264 263 261 260 259 257 256 253 251 249 247 245 244 243 242 241 241 240 239 239 239 239
279 280 281 282 283 284 285 286 287 288 288 289 289 290 290 291 291 292 292 292 292 292 293 293 293 293 292 292 292 293 293 293 293 293 292 292 291 291 289 288 287 286 285 284 283 282 281 280 279 278 276 276 275 275 274 272 270 269 267 266 266 266 266 265 263 261 259 258 257 256 254 253 251 249 247 246 245 244 243 243 243 242 242 241 241 241
278 279 280 280 281 282 283 284 286 287 288 288 289 289 290 291 291 291 292 292 292 292 292 292 293 293 293 292 293 293 293 293 293 293 292 292 292 291 290 289 288 287 286 285 284 283 282 281 280 278 277 276 275 274 273 271 269 268 266 265 265 265 265 264 262 260 259 257 255 254 253 252 250 249 248 247 246 245 245 245 244 244 243 243 242 242
279 279 279 280 280 281 282 283 284 286 287 288 288 289 290 291 291 291 291 291 291 291 292 292 292 292 292 292 292 292 291 291 291 291 291 291 291 290 290 289 288 287 287 286 285 284 283 282 281 279 278 276 275 274 272 270 268 267 265 264 264 264 264 263 262 260 257 256 254 253 252 251 250 250 249 248 248 247 247 246 246 245 244 244 243 243
280 280 280 280 280 280 281 283 284 285 286 288 289 290 291 291 291 291 290 290 290 290 290 291 291 291 291 291 291 290 290 290 290 289 289 289 289 289 289 288 288 287 287 287 286 285 284 283 282 280 278 277 275 273 271 269 268 267 265 264 263 263 263 262 261 260 257 255 253 252 251 250 250 250 250 249 249 248 248 247 247 246 246 245 244 244
281 281 281 281 281 281 282 283 284 285 287 288 289 290 291 291 290 289 289 288 288 288 289 289 289 289 290 290 289 289 289 289 289 288 288 288 288 288 288 287 287 287 287 287 286 285 285 284 283 281 279 277 275 273 271 269 268 267 266 264 263 263 262 261 261 259 257 255 253 252 251 250 250 250 250 250 250 249 249 249 248 247 247 246 245 245
282 282 282 282 282 282 283 283 284 286 287 289 290 290 290 290 289 288 287 286 286 286 286 286 286 287 287 287 287 288 288 288 288 288 288 287 287 287 287 287 287 287 287 286 286 286 285 284 283 282 280 279 276 274 271 269 268 267 266 265 264 262 261 261 260 259 257 256 254 252 251 250 250 250 250 250 250 250 250 249 249 248 248 247 246 246
283 283 283 282 282 282 282 283 284 285 287 289 290 290 290 290 289 287 286 285 284 283 283 283 283 284 284 284 285 285 286 286 287 287 287 287 287 287 286 286 286 285 286 286 286 286 285 284 283 282 281 279 277 275 273 271 269 268 267 265 264 262 260 260 259 258 257 256 254 253 252 251 250 250 250 250 250 250 250 250 249 249 248 248 247 246
283 284 283 282 282 281 282 282 284 285 287 289 290 290 290 290 289 287 285 284 282 281 281 280 281 281 281 281 282 283 283 284 285 285 286 286 286 286 285 285 285 284 284 285 285 285 285 284 283 281 280 278 277 276 275 273 271 269 268 266 264 262 260 259 258 258 257 256 255 254 253 251 250 250 249 249 250 250 250 250 250 249 248 248 247 246
282 283 282 282 281 281 281 282 283 285 287 289 289 290 289 289 288 287 285 283 281 279 278 278 278 278 278 279 280 280 281 281 282 282 283 284 284 284 284 284 283 283 283 283 283 284 284 283 282 281 279 277 276 276 275 274 273 271 268 266 264 262 261 259 259 258 257 257 256 255 254 252 251 250 250 249 249 249 249 250 249 249 248 248 247 246
280 281 281 281 281 280 281 281 283 284 286 287 288 289 288 288 287 286 284 282 280 278 277 276 276 276 276 277 277 278 279 279 280 280 281 282 282 283 283 282 282 281 281 281 281 281 281 282 281 280 278 277 276 275 275 274 273 271 269 267 264 262 261 260 259 258 257 257 256 255 254 253 252 251 250 249 249 249 249 249 249 249 248 248 247 247
278 279 280 280 280 280 280 281 282 283 285 286 287 287 287 287 285 284 282 281 279 277 276 275 275 275 275 276 276 276 277 277 278 278 279 279 280 280 281 281 280 280 280 279 279 278 279 279 279 279 278 277 276 275 273 273 272 271 270 267 265 263 261 260 259 258 257 257 256 255 255 254 253 252 251 250 249 249 249 250 250 250 249 249 249 249
Height
3119 3118 3118 3117 3116 3116 3115 3114 3114 3113 3112 3112 3112 3111 3110 3110 3109 3109 3108 3107 3107 3106 3105 3104 3104 3103 3102 3102 3101 3100 3100 3099 3099 3098 3097 3097 3096 3095 3094 3093 3092 3091 3090 3090 3089 3088 3088 3087 3087 3087 3086 3085 3085 3084 3084 3083 3083 3083 3083 3083 3083 3083 3083 3083 3083 3083 3083 3083 3083 3084 3084 3083 3082 3082 3082 3082 3082 3082 3082 3082 3082 3082 3082 3082 3082 3082
3117 3116 3115 3115 3114 3113 3113 3112 3112 3111 3110 3109 3109 3108 3108 3107 3107 3106 3106 3105 3104 3104 3103 3102 3102 3101 3100 3100 3099 3098 3098 3097 3097 3096 3096 3095 3094 3093 3092 3091 3090 3089 3088 3088 3087 3087 3086 3086 3085 3085 3084 3084 3083 3082 3082 3082 3081 3081 3081 3081 3081 3082 3082 3082 3082 3082 3082 3082 3083 3084 3083 3082 3082 3082 3082 3082 3082 3082 3081 3081 3081 3081 3081 3081 3081 3081
3114 3113 3113 3112 3112 3111 3110 3110 3109 3108 3108 3107 3107 3106 3106 3105 3105 3104 3103 3103 3102 3101 3101 3100 3099 3099 3098 3097 3097 3097 3096 3096 3095 3095 3094 3093 3092 3092 3091 3090 3088 3087 3087 3086 3085 3085 3084 3084 3083 3083 3083 3082 3082 3081 3081 3080 3080 3079 3079 3079 3079 3080 3080 3080 3081 3081 3081 3081 3082 3082 3082 3082 3080 3080 3080 3080 3080 3079 3079 3079 3079 3080 3080 3080 3080 3080
3112 3111 3111 3110 3110 3109 3108 3107 3107 3106 3106 3105 3104 3104 3103 3103 3102 3102 3101 3101 3100 3099 3098 3098 3097 3097 3096 3096 3095 3095 3094 3094 3093 3092 3092 3091 3091 3090 3089 3088 3087 3086 3085 3084 3084 3083 3083 3082 3082 3082 3081 3081 3080 3080 3079 3079 3078 3078 3077 3077 3078 3078 3078 3078 3079 3079 3079 3079 3079 3080 3081 3081 3080 3079 3079 3078 3078 3078 3078 3078 3078 3078 3078 3078 3078 3078
3109 3109 3108 3108 3107 3107 3106 3105 3104 3104 3103 3103 3102 3102 3101 3101 3100 3100 3099 3098 3098 3097 3096 3096 3095 3095 3094 3094 3093 3093 3092 3092 3091 3091 3090 3089 3089 3088 3087 3086 3085 3084 3083 3082 3082 3082 3081 3081 3080 3080 3079 3079 3079 3078 3078 3077 3077 3077 3076 3076 3076 3076 3077 3077 3077 3077 3077 3077 3077 3078 3078 3079 3079 3079 3078 3078 3078 3077 3077 3077 3077 3077 3077 3077 3077 3077
3107 3106 3106 3106 3105 3104 3104 3103 3102 3102 3101 3100 3100 3099 3099 3098 3098 3097 3097 3096 3096 3095 3094 3093 3093 3092 3092 3092 3091 3091 3090 3090 3089 3088 3088 3087 3087 3086 3085 3085 3083 3082 3082 3081 3080 3080 3079 3079 3078 3078 3078 3077 3077 3077 3076 3076 3076 3075 3075 3075 3075 3075 3075 3075 3075 3075 3075 3076 3076 3076 3076 3077 3077 3077 3077 3077 3077 3077 3077 3077 3077 3077 3076 3076 3076 3076
3104 3104 3104 3103 3103 3102 3102 3101 3100 3100 3099 3098 3097 3097 3097 3096 3096 3095 3095 3094 3093 3092 3092 3091 3091 3090 3090 3089 3089 3089 3088 3087 3087 3086 3086 3085 3085 3084 3083 3083 3082 3081 3080 3079 3079 3078 3078 3077 3077 3077 3076 3076 3075 3075 3075 3074 3074 3074 3073 3073 3073 3073 3073 3073 3073 3073 3074 3074 3074 3074 3075 3075 3075 3076 3076 3076 3076 3076 3076 3075 3075 3075 3075 3074 3074 3074
3102 3102 3101 3101 3100 3100 3099 3099 3098 3097 3097 3096 3096 3095 3094 3094 3093 3093 3092 3092 3091 3090 3089 3089 3088 3088 3088 3087 3087 3086 3086 3086 3085 3084 3083 3083 3082 3082 3082 3081 3080 3079 3078 3077 3077 3077 3076 3076 3075 3075 3075 3074 3074 3073 3073 3073 3072 3072 3072 3072 3071 3071 3071 3072 3072 3072 3072 3072 3072 3073 3073 3073 3074 3074 3074 3074 3074 3074 3074 3073 3073 3073 3073 3073 3072 3072
3099 3099 3098 3098 3098 3097 3097 3097 3096 3096 3095 3094 3093 3093 3092 3092 3091 3090 3090 3089 3088 3087 3087 3087 3087 3086 3085 3085 3085 3084 3084 3083 3083 3082 3081 3081 3080 3080 3079 3079 3078 3077 3077 3076 3076 3075 3075 3074 3074 3073 3073 3073 3072 3072 3072 3071 3071 3070 3070 3070 3070 3070 3070 3070 3070 3070 3071 3071 3071 3071 3072 3072 3072 3072 3072 3072 3072 3072 3072 3072 3072 3071 3071 3071 3071 3071
3097 3097 3096 3096 3096 3096 3095 3094 3094 3093 3093 3092 3091 3091 3090 3089 3089 3088 3087 3086 3085 3085 3084 3084 3084 3084 3083 3082 3082 3082 3081 3081 3080 3080 3079 3079 3078 3078 3077 3077 3076 3076 3075 3074 3074 3074 3073 3072 3072 3072 3072 3071 3071 3070 3070 3070 3069 3069 3069 3068 3068 3068 3068 3068 3069 3069 3069 3069 3069 3070 3070 3070 3071 3071 3071 3070 3070 3070 3070 3070 3070 3069 3069 3069 3069 3069
3095 3094 3094 3094 3093 3093 3092 3092 3091 3091 3090 3089 3089 3088 3087 3087 3087 3086 3085 3084 3083 3082 3081 3081 3081 3081 3081 3080 3080 3079 3079 3078 3078 3077 3077 3077 3076 3076 3075 3075 3074 3074 3073 3073 3072 3072 3072 3071 3071 3070 3070 3070 3069 3069 3068 3068 3068 3067 3067 3067 3067 3067 3067 3067 3067 3067 3067 3068 3068 3068 3069 3069 3069 3069 3069 3069 3068 3068 3068 3068 3068 3067 3067 3067 3067 3067
3092 3092 3092 3091 3090 3090 3089 3089 3088 3088 3087 3087 3086 3085 3084 3084 3084 3084 3083 3082 3081 3080 3079 3078 3079 3079 3078 3078 3077 3077 3077 3076 3076 3075 3075 3074 3074 3074 3073 3073 3072 3072 3072 3071 3071 3070 3070 3069 3069 3069 3068 3068 3067 3067 3067 3067 3066 3066 3066 3066 3066 3066 3066 3066 3066 3066 3066 3066 3067 3067 3067 3067 3067 3067 3067 3067 3067 3067 3066 3066 3066 3066 3066 3066 3066 3066
3089 3089 3089 3088 3087 3087 3086 3086 3085 3085 3084 3083 3083 3082 3082 3082 3081 3081 3081 3080 3079 3078 3077 3076 3076 3076 3076 3075 3075 3074 3074 3074 3073 3073 3072 3072 3072 3072 3071 3071 3070 3070 3070 3069 3069 3068 3068 3068 3067 3067 3067 3066 3066 3065 3065 3065 3065 3064 3064 3064 3064 3064 3064 3064 3064 3064 3064 3065 3065 3065 3065 3065 3065 3065 3065 3065 3065 3065 3065 3064 3064 3064 3064 3064 3064 3065
3087 3087 3086 3086 3085 3084 3084 3083 3083 3082 3082 3081 3080 3080 3079 3079 3078 3078 3078 3077 3077 3076 3075 3074 3073 3073 3073 3072 3072 3072 3072 3071 3071 3071 3070 3070 3069 3069 3069 3068 3068 3068 3068 3067 3067 3066 3066 3066 3066 3065 3065 3064 3064 3064 3063 3063 3063 3063 3063 3062 3062 3062 3062 3062 3062 3062 3063 3063 3063 3063 3063 3063 3063 3063 3063 3063 3063 3063 3063 3062 3062 3062 3062 3062 3063 3063
3084 3084 3083 3083 3082 3082 3081 3081 3080 3080 3079 3078 3077 3077 3077 3076 3076 3076 3075 3075 3074 3073 3073 3072 3072 3071 3071 3070 3070 3069 3069 3069 3069 3069 3068 3068 3067 3067 3067 3067 3066 3066 3066 3065 3065 3064 3064 3064 3064 3063 3063 3062 3062 3062 3062 3062 3061 3061 3061 3061 3061 3061 3061 3061 3061 3061 3061 3061 3062 3062 3062 3062 3062 3062 3062 3062 3062 3062 3061 3061 3061 3061 3061 3061 3061 3062
3082 3082 3081 3080 3080 3079 3078 3078 3077 3077 3076 3076 3075 3074 3074 3073 3073 3073 3073 3072 3072 3071 3071 3070 3069 3069 3068 3068 3067 3067 3067 3066 3066 3066 3066 3066 3065 3065 3065 3065 3064 3064 3064 3064 3063 3062 3062 3062 3062 3062 3061 3061 3060 3060 3060 3060 3059 3059 3059 3059 3059 3059 3059 3059 3059 3059 3059 3060 3060 3060 3060 3060 3060 3060 3060 3060 3060 3060 3059 3059 3059 3059 3059 3060 3060 3060
3079 3078 3078 3077 3077 3076 3076 3075 3075 3074 3073 3073 3072 3072 3072 3071 3071 3070 3070 3070 3069 3069 3068 3068 3067 3067 3066 3065 3065 3065 3065 3064 3064 3064 3064 3063 3063 3063 3063 3062 3062 3062 3062 3062 3061 3061 3060 3060 3060 3059 3059 3059 3059 3058 3058 3058 3058 3057 3057 3057 3057 3057 3057 3057 3057 3057 3058 3058 3058 3058 3058 3058 3058 3058 3058 3058 3058 3057 3057 3057 3057 3057 3058 3058 3058 3059
3076 3076 3075 3074 3074 3073 3073 3073 3072 3072 3071 3071 3070 3070 3069 3069 3068 3068 3067 3067 3067 3067 3066 3066 3065 3064 3064 3063 3062 3062 3063 3062 3062 3062 3062 3062 3061 3061 3061 3061 3060 3060 3060 3060 3059 3058 3058 3058 3058 3057 3057 3057 3057 3057 3056 3056 3056 3056 3056 3055 3055 3056 3056 3056 3056 3056 3056 3056 3056 3056 3056 3056 3056 3056 3056 3056 3056 3056 3056 3055 3056 3056 3056 3057 3057 3057
3073 3072 3072 3072 3071 3071 3071 3070 3070 3069 3068 3068 3068 3067 3067 3066 3066 3066 3065 3065 3064 3064 3064 3063 3063 3062 3062 3061 3060 3060 3061 3060 3060 3059 3059 3059 3059 3059 3059 3059 3058 3058 3058 3058 3057 3057 3056 3056 3056 3056 3056 3055 3055 3055 3055 3054 3054 3054 3054 3054 3054 3054 3054 3054 3054 3054 3054 3054 3054 3054 3054 3054 3054 3054 3054 3054 3054 3054 3054 3054 3054 3054 3054 3055 3055 3056
3070 3069 3069 3069 3068 3068 3068 3067 3067 3067 3066 3066 3065 3065 3064 3064 3063 3063 3063 3062 3062 3062 3061 3061 3060 3060 3059 3059 3058 3058 3058 3058 3057 3057 3057 3057 3057 3057 3057 3057 3057 3057 3056 3056 3055 3055 3055 3054 3054 3054 3054 3053 3053 3053 3053 3053 3053 3052 3052 3052 3052 3052 3052 3052 3052 3052 3052 3052 3052 3052 3052 3052 3052 3052 3052 3052 3052 3052 3052 3052 3052 3052 3052 3053 3053 3054
3067 3067 3066 3066 3066 3066 3065 3065 3064 3064 3064 3063 3063 3062 3062 3062 3061 3061 3061 3060 3060 3059 3059 3059 3058 3057 3057 3057 3057 3056 3056 3056 3055 3055 3055 3055 3055 3055 3055 3055 3055 3054 3054 3054 3053 3053 3053 3052 3052 3052 3052 3052 3052 3051 3051 3051 3051 3051 3051 3050 3050 3050 3050 3050 3050 3050 3050 3050 3050 3050 3050 3050 3050 3050 3050 3050 3050 3050 3050 3050 3050 3050 3051 3051 3052 3052
3065 3064 3064 3064 3064 3063 3063 3062 3062 3062 3062 3061 3061 3060 3060 3060 3059 3059 3058 3058 3057 3057 3057 3056 3056 3056 3055 3055 3054 3054 3054 3054 3053 3053 3053 3053 3053 3053 3053 3053 3052 3052 3052 3052 3052 3051 3051 3051 3050 3050 3050 3050 3049 3049 3049 3049 3049 3049 3049 3049 3048 3048 3048 3048 3048 3048 3047 3047 3047 3047 3047 3047 3047 3048 3048 3048 3048 3048 3048 3048 3048 3049 3049 3050 3050 3051
3062 3062 3062 3062 3061 3061 3061 3060 3060 3059 3059 3059 3058 3058 3058 3057 3057 3057 3056 3056 3056 3055 3055 3054 3054 3054 3053 3053 3053 3052 3052 3052 3051 3051 3051 3051 3051 3051 3051 3051 3051 3050 3051 3051 3050 3049 3049 3049 3048 3048 3048 3047 3047 3047 3047 3047 3047 3047 3047 3047 3047 3046 3046 3046 3046 3046 3045 3045 3045 3045 3045 3045 3045 3045 3046 3046 3046 3046 3046 3046 3047 3047 3047 3048 3048 3049
3060 3060 3059 3059 3059 3059 3058 3058 3057 3057 3057 3057 3056 3056 3056 3056 3055 3055 3055 3054 3054 3053 3053 3052 3052 3052 3052 3051 3051 3050 3050 3050 3049 3049 3049 3049 3049 3049 3049 3049 3048 3048 3048 3048 3048 3048 3047 3047 3047 3046 3046 3046 3046 3046 3045 3045 3045 3045 3045 3044 3044 3044 3044 3044 3044 3043 3043 3043 3043 3043 3043 3043 3043 3043 3043 3043 3044 3044 3044 3045 3045 3045 3046 3046 3047 3047
3057 3057 3057 3057 3057 3056 3056 3056 3055 3055 3055 3055 3054 3054 3054 3053 3053 3053 3052 3052 3052 3052 3051 3051 3050 3050 3050 3049 3049 3048 3048 3048 3047 3047 3047 3047 3047 3047 3047 3047 3046 3046 3046 3046 3046 3046 3046 3045 3045 3044 3044 3044 3044 3043 3043 3043 3043 3043 3042 3042 3042 3042 3042 3042 3042 3041 3041 3041 3041 3041 3041 3041 3041 3041 3041 3041 3042 3042 3042 3043 3043 3043 3044 3044 3045 3046
3055 3055 3055 3055 3054 3054 3054 3053 3053 3053 3053 3052 3052 3052 3052 3052 3051 3051 3051 3050 3050 3049 3049 3048 3048 3048 3048 3047 3047 3047 3046 3046 3046 3045 3045 3045 3045 3045 3045 3044 3044 3044 3044 3044 3044 3044 3044 3043 3043 3042 3042 3042 3042 3042 3041 3041 3041 3041 3041 3040 3040 3040 3040 3040 3039 3039 3039 3039 3038 3038 3038 3038 3039 3039 3039 3039 3040 3040 3040 3041 3041 3042 3042 3043 3043 3044
3053 3053 3052 3052 3052 3052 3052 3052 3052 3051 3051 3051 3051 3050 3050 3050 3049 3049 3048 3048 3048 3047 3047 3047 3047 3046 3046 3046 3045 3045 3044 3044 3044 3043 3043 3043 3043 3043 3043 3042 3042 3042 3042 3042 3042 3042 3042 3042 3041 3041 3040 3040 3039 3039 3039 3039 3039 3039 3039 3038 3038 3038 3038 3037 3037 3037 3037 3037 3037 3037 3037 3037 3037 3037 3037 3037 3038 3038 3039 3039 3040 3040 3041 3041 3042 3042
3051 3051 3051 3051 3050 3050 3050 3050 3050 3049 3049 3049 3049 3048 3048 3048 3047 3047 3046 3046 3046 3046 3045 3045 3045 3044 3044 3043 3043 3043 3042 3042 3042 3041 3041 3041 3041 3041 3041 3040 3040 3039 3040 3039 3039 3040 3040 3039 3039 3038 3038 3038 3037 3037 3037 3037 3037 3037 3037 3037 3036 3036 3036 3036 3035 3035 3035 3035 3035 3035 3035 3035 3035 3035 3035 3035 3036 3036 3037 3037 3038 3038 3039 3040 3040 3041
3049 3049 3049 3048 3048 3048 3048 3048 3048 3047 3047 3047 3047 3046 3046 3046 3046 3045 3044 3044 3044 3044 3043 3043 3043 3042 3042 3042 3041 3041 3040 3040 3040 3039 3039 3039 3039 3039 3039 3038 3038 3037 3037 3037 3037 3038 3038 3037 3037 3037 3036 3036 3036 3035 3035 3035 3035 3035 3035 3035 3034 3034 3034 3034 3034 3033 3033 3033 3033 3033 3033 3033 3033 3033 3033 3034 3034 3035 3035 3036 3036 3037 3037 3038 3038 3039
3047 3047 3047 3047 3047 3046 3046 3046 3046 3045 3045 3045 3045 3044 3044 3044 3044 3043 3043 3042 3042 3042 3042 3041 3041 3041 3040 3040 3039 3039 3038 3038 3038 3037 3037 3037 3037 3037 3037 3037 3036 3036 3036 3036 3036 3036 3036 3036 3035 3035 3034 3034 3033 3033 3033 3033 3033 3033 3033 3033 3033 3032 3032 3032 3032 3032 3032 3032 3032 3031 3031 3031 3032 3032 3032 3032 3033 3033 3034 3034 3035 3035 3036 3037 3037 3037
3045 3045 3045 3044 3044 3044 3044 3043 3043 3043 3043 3043 3043 3042 3042 3042 3042 3041 3041 3041 3040 3040 3039 3039 3039 3039 3038 3038 3038 3037 3036 3036 3036 3036 3035 3034 3034 3034 3035 3034 3034 3034 3034 3034 3034 3034 3034 3034 3034 3033 3032 3032 3032 3032 3031 3031 3031 3031 3031 3031 3031 3031 3031 3030 3030 3030 3030 3030 3030 3030 3030 3030 3030 3030 3030 3031 3031 3032 3032 3033 3033 3034 3034 3035 3036 3036
3043 3043 3043 3042 3042 3042 3042 3042 3041 3041 3041 3041 3041 3040 3040 3040 3039 3039 3039 3038 3038 3038 3037 3037 3037 3037 3037 3036 3036 3035 3035 3034 3034 3034 3033 3032 3032 3032 3032 3032 3032 3032 3032 3032 3032 3032 3032 3032 3032 3032 3031 3030 3030 3030 3029 3029 3029 3029 3029 3029 3029 3029 3029 3029 3029 3029 3029 3028 3028 3028 3028 3028 3029 3029 3029 3029 3030 3030 3031 3031 3032 3032 3033 3034 3034 3035
3042 3041 3041 3041 3040 3040 3040 3039 3039 3039 3039 3038 3038 3038 3038 3037 3037 3037 3037 3036 3036 3036 3036 3035 3035 3035 3034 3034 3034 3033 3033 3032 3032 3032 3031 3031 3031 3030 3030 3030 3030 3030 3030 3029 3030 3030 3030 3030 3031 3030 3030 3029 3029 3028 3028 3027 3027 3027 3027 3027 3027 3027 3027 3027 3027 3027 3027 3027 3027 3027 3027 3027 3027 3027 3028 3028 3028 3029 3029 3030 3031 3031 3032 3032 3033 3033
3040 3039 3039 3039 3039 3038 3038 3037 3037 3037 3037 3037 3036 3036 3036 3035 3035 3035 3034 3034 3034 3034 3034 3033 3033 3033 3032 3032 3032 3032 3031 3031 3030 3030 3029 3029 3028 3028 3028 3028 3028 3027 3027 3027 3027 3027 3028 3028 3028 3028 3028 3027 3027 3027 3026 3026 3025 3025 3025 3025 3025 3025 3025 3025 3026 3026 3026 3026 3025 3025 3025 3026 3026 3026 3026 3027 3027 3027 3028 3029 3029 3030 3031 3031 3032 3032
3037 3037 3037 3037 3037 3036 3036 3036 3036 3035 3035 3035 3034 3034 3033 3033 3033 3032 3032 3032 3032 3032 3032 3032 3031 3031 3031 3030 3030 3030 3029 3029 3028 3028 3027 3027 3027 3026 3026 3026 3026 3025 3025 3025 3025 3025 3026 3026 3026 3026 3026 3026 3025 3025 3024 3024 3023 3023 3023 3023 3023 3023 3023 3024 3024 3024 3024 3024 3024 3024 3024 3024 3024 3025 3025 3025 3026 3026 3027 3027 3028 3029 3029 3030 3030 3031
3036 3035 3035 3035 3035 3034 3034 3034 3034 3033 3033 3033 3032 3032 3032 3031 3031 3031 3031 3031 3030 3030 3030 3029 3029 3029 3028 3028 3028 3027 3027 3027 3027 3026 3026 3025 3025 3024 3024 3024 3023 3023 3023 3023 3023 3023 3023 3023 3023 3023 3023 3023 3023 3023 3022 3022 3022 3022 3022 3021 3021 3022 3022 3022 3022 3022 3022 3022 3022 3022 3022 3022 3023 3023 3024 3024 3024 3025 3026 3026 3027 3027 3028 3028 3029 3030
3034 3033 3033 3033 3033 3032 3032 3032 3032 3032 3031 3031 3031 3030 3030 3030 3029 3029 3029 3029 3028 3028 3028 3027 3027 3027 3027 3026 3026 3025 3025 3025 3024 3024 3024 3023 3023 3022 3022 3022 3022 3021 3021 3021 3021 3021 3021 3021 3021 3021 3021 3021 3021 3021 3021 3020 3020 3020 3020 3019 3019 3020 3020 3020 3020 3021 3021 3021 3021 3021 3021 3021 3022 3022 3022 3023 3023 3024 3024 3025 3025 3026 3027 3027 3028 3028
3032 3032 3031 3031 3031 3030 3030 3030 3029 3029 3029 3029 3028 3028 3028 3028 3027 3027 3027 3027 3027 3026 3026 3026 3025 3025 3024 3024 3024 3023 3023 3022 3022 3022 3022 3021 3021 3020 3020 3020 3019 3019 3019 3018 3018 3018 3018 3018 3018 3018 3019 3019 3018 3018 3018 3018 3018 3018 3018 3017 3017 3017 3018 3018 3018 3019 3019 3019 3019 3019 3019 3020 3020 3020 3021 3021 3022 3022 3023 3023 3024 3024 3025 3026 3027 3027
3030 3029 3029 3029 3029 3028 3028 3027 3027 3027 3027 3027 3026 3026 3026 3026 3025 3025 3025 3025 3024 3024 3024 3024 3023 3023 3022 3022 3022 3021 3021 3020 3020 3020 3019 3019 3019 3018 3018 3018 3017 3017 3017 3017 3016 3016 3016 3016 3016 3016 3016 3016 3016 3016 3016 3016 3016 3016 3016 3016 3016 3016 3016 3016 3017 3017 3017 3017 3017 3017 3018 3018 3018 3019 3019 3020 3020 3021 3021 3022 3022 3023 3024 3024 3025 3026
3027 3027 3027 3027 3027 3027 3026 3026 3025 3025 3025 3024 3024 3024 3024 3023 3023 3023 3023 3022 3022 3022 3022 3022 3021 3021 3020 3020 3020 3019 3019 3018 3018 3017 3017 3017 3017 3016 3016 3016 3016 3015 3015 3015 3014 3014 3014 3014 3014 3014 3014 3014 3014 3014 3014 3014 3014 3014 3014 3014 3013 3013 3014 3014 3015 3015 3015 3015 3016 3016 3016 3017 3017 3017 3018 3018 3019 3019 3020 3020 3021 3022 3022 3023 3023 3024
3025 3025 3025 3025 3025 3025 3024 3024 3023 3023 3023 3022 3022 3022 3022 3021 3021 3021 3021 3020 3020 3020 3020 3019 3019 3018 3018 3017 3017 3017 3017 3016 3016 3016 3015 3015 3015 3014 3014 3014 3013 3013 3013 3013 3012 3012 3012 3012 3012 3012 3012 3012 3012 3012 3012 3012 3012 3012 3012 3012 3012 3012 3012 3012 3013 3013 3013 3014 3014 3014 3015 3015 3015 3016 3016 3017 3017 3018 3018 3019 3019 3020 3021 3021 3022 3022
3023 3023 3023 3023 3023 3023 3022 3022 3022 3021 3021 3020 3020 3020 3019 3019 3019 3019 3018 3018 3018 3018 3017 3017 3017 3016 3016 3015 3015 3015 3015 3014 3014 3014 3013 3013 3013 3012 3012 3012 3012 3011 3011 3011 3010 3010 3010 3010 3010 3009 3010 3010 3010 3010 3010 3009 3009 3009 3009 3010 3010 3010 3010 3010 3011 3011 3012 3012 3012 3012 3013 3013 3014 3014 3015 3015 3016 3016 3017 3017 3018 3018 3019 3019 3020 3021
3021 3021 3021 3021 3021 3021 3020 3020 3019 3019 3019 3018 3018 3017 3017 3017 3017 3017 3016 3016 3016 3015 3015 3015 3014 3014 3013 3013 3013 3013 3012 3012 3012 3012 3012 3011 3011 3011 3010 3010 3010 3009 3009 3009 3008 3008 3008 3008 3007 3007 3007 3007 3007 3007 3007 3007 3007 3007 3007 3007 3008 3008 3008 3008 3009 3009 3010 3010 3011 3011 3011 3012 3012 3012 3013 3013 3014 3014 3015 3016 3016 3017 3017 3017 3018 3019
3019 3019 3019 3019 3018 3018 3018 3017 3017 3017 3017 3016 3016 3015 3015 3015 3015 3014 3014 3013 3013 3013 3013 3012 3012 3012 3011 3011 3011 3011 3010 3010 3010 3010 3009 3009 3009 3009 3008 3008 3008 3007 3007 3007 3007 3006 3006 3006 3006 3005 3005 3006 3006 3005 3005 3005 3005 3005 3005 3006 3006 3006 3007 3007 3007 3007 3008 3008 3009 3009 3009 3010 3010 3011 3012 3012 3012 3013 3013 3014 3014 3015 3015 3016 3016 3017
3016 3016 3016 3016 3016 3016 3015 3015 3015 3014 3014 3014 3013 3013 3013 3013 3012 3012 3012 3011 3011 3011 3011 3010 3010 3010 3009 3009 3008 3008 3008 3008 3007 3007 3007 3007 3007 3007 3007 3006 3006 3006 3005 3005 3005 3004 3004 3004 3003 3003 3003 3003 3003 3003 3003 3003 3003 3003 3003 3004 3004 3005 3005 3005 3005 3005 3006 3007 3007 3007 3008 3008 3009 3009 3010 3010 3011 3011 3012 3012 3012 3013 3013 3014 3014 3015
3014 3014 3014 3013 3013 3013 3013 3012 3012 3012 3012 3012 3011 3011 3011 3011 3010 3010 3010 3009 3009 3009 3008 3008 3008 3007 3007 3007 3006 3006 3005 3005 3005 3005 3005 3005 3005 3005 3004 3004 3004 3004 3003 3003 3003 3002 3002 3002 3002 3001 3001 3001 3001 3001 3001 3001 3001 3001 3002 3002 3002 3003 3003 3003 3003 3003 3004 3004 3005 3006 3006 3007 3007 3008 3008 3008 3009 3009 3010 3010 3011 3011 3012 3012 3012 3013
3011 3011 3011 3011 3011 3011 3010 3010 3010 3009 3009 3009 3009 3009 3008 3008 3008 3008 3007 3007 3007 3007 3006 3006 3006 3006 3005 3004 3004 3004 3003 3003 3002 3002 3002 3002 3002 3002 3002 3002 3002 3002 3001 3001 3001 3001 3000 3000 3000 3000 2999 2999 2999 2999 2999 2999 2999 2999 3000 3000 3000 3001 3001 3001 3001 3001 3002 3002 3003 3003 3004 3005 3005 3006 3006 3007 3007 3007 3008 3008 3009 3009 3010 3010 3011 3011
3008 3008 3008 3008 3008 3008 3007 3007 3007 3007 3007 3006 3006 3006 3006 3006 3006 3005 3005 3005 3005 3004 3004 3004 3004 3003 3003 3002 3002 3002 3001 3001 3001 3000 3000 3000 3000 3000 3000 3000 3000 2999 2999 2999 2999 2999 2998 2998 2998 2997 2997 2997 2997 2997 2997 2997 2997 2998 2998 2998 2998 2998 2998 2998 2999 2999 3000 3000 3001 3002 3002 3003 3003 3004 3004 3005 3005 3006 3006 3007 3007 3007 3007 3008 3008 3009
3006 3006 3006 3006 3006 3005 3005 3005 3005 3004 3004 3004 3004 3003 3003 3003 3003 3003 3002 3002 3002 3002 3002 3002 3001 3001 3001 3000 3000 2999 2999 2999 2998 2998 2998 2997 2997 2997 2997 2997 2997 2997 2997 2997 2997 2997 2997 2996 2996 2995 2995 2996 2996 2996 2995 2995 2995 2996 2996 2996 2996 2996 2996 2997 2997 2997 2998 2998 2999 2999 3000 3001 3001 3002 3002 3003 3003 3004 3004 3004 3005 3005 3005 3006 3006 3007
3004 3003 3003 3003 3003 3002 3002 3002 3002 3002 3002 3002 3001 3001 3001 3001 3000 3000 3000 3000 2999 2999 2999 2999 2999 2998 2998 2998 2997 2997 2997 2997 2996 2996 2996 2996 2995 2995 2995 2995 2995 2995 2995 2995 2995 2995 2995 2994 2994 2993 2993 2994 2994 2994 2994 2993 2993 2993 2994 2994 2994 2994 2994 2994 2995 2995 2996 2996 2997 2997 2998 2998 2999 3000 3000 3001 3001 3002 3002 3002 3002 3003 3003 3003 3004 3005
3001 3001 3001 3001 3000 3000 3000 3000 3000 2999 2999 2999 2999 2999 2998 2998 2998 2997 2997 2997 2997 2997 2996 2996 2996 2996 2996 2995 2995 2995 2994 2994 2994 2994 2994 2993 2993 2992 2992 2992 2992 2992 2993 2993 2993 2993 2993 2993 2992 2991 2991 2992 2992 2992 2992 2992 2992 2992 2992 2992 2992 2992 2992 2992 2993 2993 2994 2994 2995 2995 2996 2996 2997 2997 2998 2998 2999 3000 3000 3000 3000 3000 3001 3001 3002 3003